Weather History for Frenchville, ME

Change the Weather History Date:

Tuesday, May 27, 2014

  Actual Average Record
Temperature  
Mean Temperature 44 °F 54 °F  
Max Temperature 50 °F 64 °F 75 °F (2001)
Min Temperature 38 °F 44 °F 35 °F (1997)
Degree Days  
Heating Degree Days 21    
Month to date heating degree days 426  
Since 1 July heating degree days 9848  
Cooling Degree Days 0    
Month to date cooling degree days 2  
Year to date cooling degree days 2  
Moisture  
Dew Point 38 °F    
Average Humidity 84    
Maximum Humidity 100    
Minimum Humidity 63    
Precipitation  
Precipitation 0.02 in 0.11 in 0.41 in (2011)
Month to date precipitation 3.72 2.58  
Year to date precipitation 10.32 9.44  
Sea Level Pressure  
Sea Level Pressure 29.98 in    
Wind  
Wind Speed 6 mph (NE)    
Max Wind Speed 13 mph    
Max Gust Speed 17 mph    
Visibility 8 miles    
Events Rain    
T = Trace of Precipitation, MM = Missing Value Source: NWS Daily Summary

Daily Weather History Graph

Daily Weather History Graph

Search for Another Location

Airport:

Trip Planner

Search our weather history database for the weather conditions in past years. The results will help you decide how hot, cold, wet, or windy it might be!

Date:

Astronomy

May. 27, 2014 Rise Set
Actual Time 4:44 AM EDT 8:16 PM EDT
Civil Twilight 4:06 AM EDT 8:55 PM EDT
Nautical Twilight 3:15 AM EDT 9:46 PM EDT
Astronomical Twilight 2:07 AM EDT 10:55 PM EDT
Moon 4:12 AM EDT (5/27) 7:09 PM EDT (5/27)
Length of Visible Light 16h 48m
Length of Day
15h 32m
Waning Crescent, 1% of the Moon is Illuminated
May 27
Waning Crescent
May 28
New
Jun 5
First Quarter
Jun 13
Full
Jun 19
Last Quarter

Hourly Weather History & Observations

Time (EDT) Temp. Windchill Dew Point Humidity Pressure Visibility Wind Dir Wind Speed Gust Speed Precip Events Conditions
12:03 AM 42.1 °F 40.2 °F 39.0 °F 89% 29.89 in 9.0 mi Variable 3.5 mph - N/A   Overcast
12:53 AM 42.1 °F - 39.0 °F 89% 29.89 in 10.0 mi Calm Calm - N/A   Overcast
1:27 AM 41.0 °F 36.4 °F 39.0 °F 93% 29.89 in 2.5 mi NE 6.9 mph - 0.00 in Rain Light Rain
1:34 AM 41.0 °F 38.0 °F 39.0 °F 93% 29.89 in 2.5 mi ENE 4.6 mph - 0.01 in Rain Light Rain
1:50 AM 39.2 °F 35.0 °F 39.2 °F 100% 29.89 in 3.0 mi Variable 5.8 mph - 0.01 in Rain Light Rain
1:53 AM 39.2 °F 34.2 °F 39.2 °F 100% 29.89 in 3.0 mi ENE 6.9 mph - N/A Rain Light Rain
2:18 AM 39.9 °F 35.8 °F 37.9 °F 93% 29.90 in 3.0 mi ENE 5.8 mph - 0.00 in   Overcast
2:39 AM 39.9 °F 35.1 °F 37.9 °F 93% 29.90 in 10.0 mi NE 6.9 mph - 0.01 in   Overcast
2:53 AM 39.9 °F 37.8 °F 37.9 °F 93% 29.91 in 10.0 mi NNE 3.5 mph - 0.01 in   Overcast
3:01 AM 39.0 °F 36.8 °F 37.0 °F 93% 29.91 in 10.0 mi NNE 3.5 mph - N/A   Mostly Cloudy
3:19 AM 39.0 °F 35.7 °F 37.0 °F 93% 29.91 in 10.0 mi NE 4.6 mph - N/A   Mostly Cloudy
3:53 AM 39.0 °F - 37.0 °F 93% 29.92 in 10.0 mi Calm Calm - N/A   Overcast
4:03 AM 39.0 °F - 37.0 °F 93% 29.92 in 10.0 mi Calm Calm - N/A   Mostly Cloudy
4:14 AM 39.0 °F - 37.0 °F 93% 29.92 in 10.0 mi Calm Calm - N/A   Overcast
4:45 AM 39.0 °F 35.7 °F 37.0 °F 93% 29.93 in 10.0 mi ENE 4.6 mph - N/A   Overcast
4:53 AM 39.0 °F 36.8 °F 37.0 °F 93% 29.95 in 10.0 mi NNE 3.5 mph - N/A   Overcast
5:53 AM 39.0 °F 36.8 °F 37.9 °F 96% 29.98 in 10.0 mi North 3.5 mph - N/A   Overcast
6:10 AM 39.0 °F 36.8 °F 37.9 °F 96% 29.97 in 2.5 mi NNE 3.5 mph - N/A   Overcast
6:30 AM 39.9 °F 35.8 °F 37.9 °F 93% 29.98 in 2.5 mi NNE 5.8 mph - 0.00 in   Overcast
6:38 AM 39.0 °F 34.8 °F 37.9 °F 96% 29.98 in 3.0 mi North 5.8 mph - 0.00 in   Overcast
6:48 AM 39.2 °F 35.9 °F 37.4 °F 93% 29.98 in 7.0 mi NNE 4.6 mph - 0.00 in   Overcast
6:53 AM 39.9 °F 36.7 °F 39.0 °F 97% 30.00 in 10.0 mi North 4.6 mph - 0.00 in   Overcast
7:44 AM 41.0 °F 35.8 °F 37.9 °F 89% 29.99 in 10.0 mi NE 8.1 mph - N/A   Overcast
7:53 AM 42.1 °F 37.7 °F 37.0 °F 82% 30.01 in 10.0 mi NNE 6.9 mph - N/A   Overcast
8:11 AM 43.0 °F 39.5 °F 37.9 °F 82% 30.00 in 10.0 mi NNE 5.8 mph - N/A   Overcast
8:39 AM 43.0 °F 40.3 °F 37.9 °F 82% 30.00 in 10.0 mi Variable 4.6 mph - N/A   Overcast
8:53 AM 44.1 °F 39.5 °F 37.9 °F 79% 30.01 in 10.0 mi North 8.1 mph - N/A   Overcast
9:53 AM 44.1 °F 39.5 °F 37.0 °F 76% 30.02 in 10.0 mi North 8.1 mph - N/A   Overcast
10:53 AM 46.0 °F 41.9 °F 37.0 °F 71% 30.02 in 10.0 mi East 8.1 mph - N/A   Overcast
11:53 AM 46.9 °F - 36.0 °F 66% 30.02 in 10.0 mi East 6.9 mph - N/A   Overcast
12:53 PM 48.0 °F - 37.0 °F 66% 30.03 in 10.0 mi NE 4.6 mph - N/A   Overcast
1:53 PM 48.0 °F - 37.0 °F 66% 30.03 in 10.0 mi East 4.6 mph - N/A   Overcast
2:53 PM 48.9 °F - 37.0 °F 64% 30.02 in 10.0 mi ENE 6.9 mph - N/A   Overcast
3:53 PM 50.0 °F - 37.9 °F 63% 30.02 in 10.0 mi East 6.9 mph - N/A   Overcast
4:53 PM 48.2 °F - 37.4 °F 66% 30.01 in 10.0 mi East 6.9 mph - N/A   Overcast
5:53 PM 50.0 °F - 37.9 °F 63% 30.02 in 10.0 mi Variable 4.6 mph - N/A   Overcast
6:53 PM 48.9 °F - 37.9 °F 66% 30.03 in 10.0 mi East 9.2 mph - N/A   Overcast
7:53 PM 48.0 °F - 37.9 °F 68% 30.05 in 10.0 mi East 8.1 mph - N/A   Overcast
8:53 PM 46.9 °F - 37.9 °F 71% 30.07 in 10.0 mi ESE 8.1 mph - N/A   Overcast
9:53 PM 46.0 °F 44.8 °F 37.9 °F 73% 30.09 in 10.0 mi East 3.5 mph - N/A   Partly Cloudy
10:53 PM 43.0 °F 39.5 °F 37.0 °F 80% 30.09 in 10.0 mi East 5.8 mph - N/A   Clear
11:53 PM 41.0 °F 36.4 °F 36.0 °F 82% 30.11 in 10.0 mi East 6.9 mph - N/A   Clear